{"data":{"norad_id":63114,"intl_designator":"2025-039L","name":"STARLINK-11600 [DTC]","alt_names":[],"object_type":"PAYLOAD","status":"ACTIVE","operator":null,"country":"US","launch_date":"2025-02-27","launch_site_code":"AFETR","launch_vehicle":null,"mission":null,"orbit_class":"UNKNOWN","rcs_meters":null,"size_class":null,"mass_kg":null,"dimensions":null,"purposes":["comms"],"wikipedia_slug":null,"has_3d_model":false,"image_url":null,"decayed_at":null,"tle_current":{"epoch":"2026-05-25T02:15:08.048160Z","epoch_age_seconds":77323,"freshness":"FRESH","line1":"1 63114U 25039L   26145.09384315  .00162310  00000+0  12443-2 0  9993","line2":"2 63114  43.0005 136.1466 0001728 267.6743  92.3927 15.70830958 71634","mean_motion":15.70830958,"eccentricity":0.0001728,"inclination_deg":43.0005,"raan_deg":136.1466,"arg_perigee_deg":267.6743,"mean_anomaly_deg":92.3927,"bstar":0.0012443,"rev_number":7163,"period_min":91.671226153667,"perigee_km":355.35715653471,"apogee_km":357.68465430683,"semimajor_km":6734.6579054208,"source":"CELESTRAK","updated_at":"2026-05-25T13:38:19.909554Z"}}}